This is the latest recevied weather packets stored in our database for station/object M0HZQ-1. If no packets are shown the sender has not sent any weather packets the latest 10 day(s).
| Time | Temp. | Humidity | Pressure | Rain* | Wind** | Luminosity | Snow |
|---|---|---|---|---|---|---|---|
| 1777660129 | 22.78° C | 42% | 1019.6 hPa | 0 mm | - | - | - |
| 1777659009 | 23.33° C | 42% | 1019.5 hPa | 0 mm | - | - | - |
| 1777657824 | 23.89° C | 41% | 1019.6 hPa | 0 mm | - | - | - |
| 1777656714 | 23.89° C | 41% | 1019.5 hPa | 0 mm | - | - | - |
| 1777655569 | 24.44° C | 40% | 1019.4 hPa | 0 mm | - | - | - |
| 1777654554 | 25° C | 40% | 1019.4 hPa | 0 mm | - | - | - |
| 1777653474 | 25° C | 39% | 1019.5 hPa | 0 mm | - | - | - |
| 1777652377 | 25° C | 39% | 1019.4 hPa | 0 mm | - | - | - |
| 1777651204 | 25° C | 38% | 1019.5 hPa | 0 mm | - | - | - |
| 1777650137 | 25° C | 36% | 1019.5 hPa | 0 mm | - | - | - |
| 1777648969 | 25° C | 36% | 1019.7 hPa | 0 mm | - | - | - |
| 1777647794 | 25° C | 34% | 1019.7 hPa | 0 mm | - | - | - |
| 1777646769 | 25° C | 34% | 1019.7 hPa | 0 mm | - | - | - |
| 1777645704 | 25° C | 32% | 1019.8 hPa | 0 mm | - | - | - |
| 1777644537 | 25° C | 31% | 1020 hPa | 0 mm | - | - | - |
| 1777643449 | 25° C | 30% | 1020 hPa | 0 mm | - | - | - |
| 1777642304 | 25° C | 29% | 1020 hPa | 0 mm | - | - | - |
| 1777641169 | 25° C | 29% | 1020.1 hPa | 0 mm | - | - | - |
| 1777640084 | 25° C | 28% | 1020.2 hPa | 0 mm | - | - | - |
| 1777638939 | 24.44° C | 28% | 1020.2 hPa | 0 mm | - | - | - |
| 1777637889 | 24.44° C | 28% | 1020.3 hPa | 0 mm | - | - | - |
| 1777636759 | 23.89° C | 28% | 1020.5 hPa | 0 mm | - | - | - |
| 1777635764 | 23.89° C | 28% | 1020.6 hPa | 0 mm | - | - | - |
| 1777634604 | 22.78° C | 28% | 1020.8 hPa | 0 mm | - | - | - |
| 1777633644 | 22.78° C | 28% | 1020.9 hPa | 0 mm | - | - | - |
* Rain latest hour (hover to see other rain measurements)
** Current wind speed in m/s (hover to see current wind gust speed)